This demonstration page uses our WeatherBlox Daily Observations layout. Learn more.

Left ArrowRight Arrow

36.17497, -115.13722

Hourly Observations for January 13, 2021

Temp ( °F °C ) Dew Point ( °F °C ) Humidity (%) Winds ( mph kmh ) Pressure ( in mb ) Visibility ( mi km ) Precip ( " mm )
12:53 am 00:53 Clear 44 6.7 9 -12.8 24 24 NW 7 11 30.37 1029 10 16 N/A
1:53 am 01:53 Clear 42 5.6 12 -11.1 29 29 WNW 9 15 30.38 1029 10 16 N/A
2:53 am 02:53 Clear 43 6.1 9 -12.8 25 25 N 7 11 30.38 1029 10 16 N/A
3:53 am 03:53 Clear 41 5 10 -12.2 28 28 N N/A 30.38 1029 10 16 N/A
4:53 am 04:53 Clear 41 5 9 -12.8 27 27 VRB 3 6 30.38 1029 10 16 N/A
5:53 am 05:53 Clear 40 4.4 10 -12.2 29 29 N N/A 30.39 1029 10 16 N/A
6:53 am 06:53 Sunny 38 3.3 11 -11.7 33 33 W 6 9 30.39 1029 10 16 N/A
7:53 am 07:53 Sunny 44 6.7 10 -12.2 25 25 NNW 8 13 30.42 1030 10 16 N/A
8:53 am 08:53 Sunny 47 8.3 11 -11.7 23 23 SSE 7 11 30.41 1030 10 16 N/A
9:53 am 09:53 Sunny 51 10.6 11 -11.7 20 20 E 3 6 30.41 1030 10 16 N/A
10:53 am 10:53 Sunny 54 12.2 11 -11.7 18 18 N N/A 30.38 1029 10 16 N/A
11:53 am 11:53 Sunny 58 14.4 12 -11.1 16 16 N N/A 30.32 1027 10 16 N/A
12:53 pm 12:53 Sunny 58 14.4 12 -11.1 16 16 N N/A 30.30 1026 10 16 N/A
1:53 pm 13:53 Sunny 60 15.6 12 -11.1 15 15 N N/A 30.27 1025 10 16 N/A
2:53 pm 14:53 Sunny 62 16.7 12 -11.1 14 14 N N/A 30.24 1024 10 16 N/A
3:53 pm 15:53 Sunny 61 16.1 12 -11.1 14 14 E 6 9 30.24 1024 10 16 N/A
4:53 pm 16:53 Clear 60 15.6 12 -11.1 15 15 N N/A 30.25 1024 10 16 N/A
5:53 pm 17:53 Clear 56 13.3 12 -11.1 17 17 E 5 7 30.27 1025 10 16 N/A
6:53 pm 18:53 Clear 53 11.7 13 -10.6 20 20 W 7 11 30.27 1025 10 16 N/A
7:53 pm 19:53 Clear 48 8.9 13 -10.6 24 24 N N/A 30.27 1025 10 16 N/A
8:53 pm 20:53 Clear 49 9.4 17 -8.3 28 28 NNW 5 7 30.28 1025 10 16 N/A
9:53 pm 21:53 Clear 48 8.9 16 -8.9 28 28 W 6 9 30.29 1026 10 16 N/A
10:53 pm 22:53 Clear 48 8.9 16 -8.9 28 28 W 5 7 30.28 1026 10 16 N/A
11:53 pm 23:53 Clear 49 9.4 17 -8.3 28 28 WNW 8 13 30.27 1025 10 16 N/A

Powered by AerisWeather